EW6336 Weather Reports


time (UTC)temp
C
wind
direction
speed
KPH
gust
KPH
rain 1hr
cm
rain 24hr
cm
rain mn
cm
humidity
%
barometer
mb
20260508100515 18 90 4.8 14.5 0.00 0.20 0.20 69 1012.9
20260508095515 18 113 4.8 12.9 0.00 0.20 0.20 71 1012.9
20260508094515 17 45 4.8 9.7 0.00 0.20 0.20 72 1012.9
20260508093515 17 45 4.8 11.3 0.00 0.20 0.20 74 1013.0
20260508092515 17 338 3.2 8.0 0.00 0.20 0.20 78 1012.8
20260508091535 17 45 3.2 8.0 0.00 0.20 0.20 80 1012.8
20260508090515 17 45 3.2 6.4 0.00 0.20 0.20 82 1012.9
20260508085517 16 90 1.6 6.4 0.03 0.20 0.20 83 1012.9
20260508084517 16 68 4.8 8.0 0.03 0.20 0.20 82 1013.0
20260508083517 16 68 3.2 6.4 0.03 0.20 0.20 82 1013.0
20260508082517 16 68 3.2 8.0 0.03 0.20 0.20 83 1013.0
20260508081517 16 0 1.6 6.4 0.03 0.20 0.20 83 1013.2
20260508080517 16 0.0 3.2 0.03 0.20 0.20 84 1013.2
20260508075517 16 0 1.6 3.2 0.00 0.18 0.18 84 1013.0
20260508074517 16 0 1.6 4.8 0.05 0.18 0.18 84 1013.0
20260508073517 16 0 1.6 3.2 0.08 0.18 0.18 85 1012.9
20260508072517 16 0 1.6 4.8 0.13 0.18 0.18 84 1012.8
20260508071517 16 0 1.6 6.4 0.15 0.18 0.18 83 1013.1
20260508070517 16 338 1.6 3.2 0.18 0.18 0.18 83 1013.0
20260508065537 16 0.0 1.6 0.18 0.18 0.18 82 1012.9
20260508064537 16 0.0 3.2 0.15 0.15 0.15 81 1012.5
20260508063517 16 0.0 1.6 0.10 0.10 0.10 80 1012.5
20260508062517 16 338 1.6 4.8 0.05 0.05 0.05 78 1012.5
20260508061517 16 0.0 1.6 0.05 0.05 0.05 78 1012.2
20260508060517 16 0.0 3.2 0.00 0.00 0.00 77 1011.9
20260508055517 16 338 4.8 8.0 0.00 0.00 0.00 77 1011.8
20260508054557 16 315 4.8 8.0 0.00 0.00 0.00 78 1011.6
20260508053517 16 293 1.6 4.8 0.00 0.00 0.00 78 1011.1
20260508052517 16 23 1.6 6.4 0.00 0.00 0.00 77 1011.1
20260508051517 16 23 1.6 4.8 0.00 0.00 0.00 77 1011.1
20260508050517 16 23 1.6 3.2 0.00 0.00 0.00 77 1011.1
20260508045537 16 0 1.6 4.8 0.00 0.00 0.00 77 1011.0
20260508044517 16 338 3.2 9.7 0.00 0.00 0.00 77 1011.0
20260508043517 16 68 1.6 4.8 0.00 0.00 0.00 77 1011.2
20260508042516 16 45 3.2 8.0 0.00 0.00 0.00 77 1011.3
20260508041517 16 90 3.2 6.4 0.00 0.00 0.00 77 1011.3
20260508040517 16 0.0 0.0 0.00 0.00 0.00 77 1011.5
20260508035517 16 0.0 0.0 0.00 0.00 0.00 77 1011.4
20260508034517 16 0.0 0.0 0.00 0.00 0.00 76 1011.3
20260508033516 16 0.0 0.0 0.00 0.00 0.00 76 1011.5
20260508032516 16 0.0 0.0 0.00 0.00 0.00 76 1011.4
20260508031517 16 0 1.6 4.8 0.00 0.00 0.00 76 1011.4
20260508030517 16 315 1.6 4.8 0.00 0.00 0.00 76 1011.3
20260508025516 16 0.0 3.2 0.00 0.00 0.00 76 1011.4
20260508024516 16 0 1.6 8.0 0.00 0.00 0.00 76 1011.5
20260508023516 16 45 1.6 3.2 0.00 0.00 0.00 76 1011.3
20260508022516 16 315 1.6 4.8 0.00 0.00 0.00 76 1011.4
20260508021517 16 0.0 1.6 0.00 0.00 0.00 76 1011.6
20260508020536 16 45 1.6 3.2 0.00 0.00 0.00 75 1011.6
20260508015516 16 90 3.2 6.4 0.00 0.00 0.00 75 1011.5
20260508014516 16 0 1.6 3.2 0.00 0.00 0.00 75 1011.5
20260508013536 16 338 1.6 4.8 0.00 0.00 0.00 75 1011.8
20260508012536 16 338 1.6 4.8 0.00 0.00 0.00 75 1012.0
20260508011516 16 315 4.8 12.9 0.00 0.00 0.00 75 1011.9
20260508010516 16 23 1.6 4.8 0.00 0.00 0.00 77 1012.2
20260508005516 16 293 1.6 4.8 0.00 0.00 0.00 77 1012.3
20260508004516 16 68 1.6 6.4 0.00 0.00 0.00 76 1012.5
20260508003516 16 68 1.6 4.8 0.00 0.00 0.00 76 1012.5
20260508002516 16 0.0 3.2 0.00 0.00 0.00 75 1012.3
20260508001536 16 68 1.6 3.2 0.00 0.00 0.00 75 1012.4
20260508000516 16 68 1.6 3.2 0.00 0.00 0.00 75 1012.6
20260507235515 17 0.0 0.0 0.00 0.00 0.00 76 1012.7
20260507234515 17 135 1.6 3.2 0.00 0.00 0.00 76 1012.8
20260507233515 17 135 1.6 3.2 0.00 0.00 0.00 75 1012.8
20260507232515 17 0.0 3.2 0.00 0.00 0.00 75 1012.7
20260507231515 17 135 1.6 4.8 0.00 0.00 0.00 75 1012.6
20260507230517 17 0.0 1.6 0.00 0.00 0.00 75 1012.6
20260507225557 17 0.0 3.2 0.00 0.00 0.00 75 1012.6
20260507224517 17 45 1.6 4.8 0.00 0.00 0.00 75 1012.7
20260507223517 17 68 1.6 4.8 0.00 0.00 0.00 75 1012.7
20260507222517 17 68 1.6 4.8 0.00 0.00 0.00 75 1013.0
20260507221517 17 338 3.2 9.7 0.00 0.00 0.00 76 1013.0
20260507220537 17 45 1.6 3.2 0.00 0.00 0.00 77 1013.0
20260507215617 17 45 1.6 6.4 0.00 0.00 0.00 78 1013.1
20260507214517 17 45 4.8 8.0 0.00 0.00 0.00 78 1013.0
20260507213517 17 45 3.2 8.0 0.00 0.00 0.00 78 1013.0
20260507212517 17 113 3.2 9.7 0.00 0.00 0.00 79 1012.7
20260507211557 17 90 3.2 12.9 0.00 0.00 0.00 78 1012.5
20260507210517 17 68 3.2 8.0 0.00 0.00 0.00 79 1012.4
20260507205537 18 68 4.8 8.0 0.00 0.00 0.00 79 1012.1
20260507204517 18 68 3.2 9.7 0.00 0.00 0.00 78 1012.0
20260507203517 18 68 3.2 6.4 0.00 0.00 0.00 78 1011.8
20260507202517 18 113 1.6 8.0 0.00 0.00 0.00 76 1011.8
20260507201517 18 225 1.6 3.2 0.00 0.00 0.00 69 1011.6
20260507200517 18 0.0 3.2 0.00 0.00 0.00 70 1011.6
20260507195517 18 225 1.6 4.8 0.00 0.00 0.00 71 1011.4
20260507194517 18 225 1.6 6.4 0.00 0.00 0.00 75 1011.3
20260507193517 18 225 3.2 4.8 0.00 0.00 0.00 77 1011.1
20260507192517 18 225 1.6 4.8 0.00 0.00 0.00 76 1011.1
20260507191517 18 225 3.2 8.0 0.00 0.00 0.00 76 1011.0
20260507190537 18 225 3.2 6.4 0.00 0.00 0.00 75 1010.8
20260507185517 18 203 1.6 3.2 0.00 0.00 0.00 76 1010.7
20260507184516 18 225 1.6 3.2 0.00 0.00 0.00 77 1010.6
20260507183516 18 248 4.8 11.3 0.00 0.00 0.00 77 1010.5
20260507182517 18 203 3.2 9.7 0.00 0.00 0.00 77 1010.6
20260507181516 18 248 4.8 9.7 0.00 0.00 0.00 77 1010.5
20260507180517 18 203 4.8 11.3 0.00 0.00 0.00 75 1010.5
20260507175516 18 225 4.8 8.0 0.00 0.00 0.00 72 1010.4
20260507174517 18 248 4.8 9.7 0.00 0.00 0.00 72 1010.3
20260507173536 18 225 3.2 8.0 0.00 0.00 0.00 73 1010.3
20260507172536 18 180 6.4 12.9 0.00 0.00 0.00 74 1010.2
20260507171516 19 158 4.8 14.5 0.00 0.00 0.00 72 1010.2
20260507170516 19 203 4.8 12.9 0.00 0.00 0.00 70 1010.1
20260507165516 20 180 4.8 11.3 0.00 0.00 0.00 69 1010.1
20260507164517 19 203 4.8 11.3 0.00 0.00 0.00 67 1010.1
20260507163517 20 158 8.0 16.1 0.00 0.00 0.00 64 1010.1
20260507162517 20 158 6.4 14.5 0.00 0.00 0.00 64 1010.0
20260507161517 20 225 8.0 19.3 0.00 0.00 0.00 68 1009.8
20260507160516 20 180 6.4 12.9 0.00 0.00 0.00 72 1009.7
20260507155536 20 225 6.4 12.9 0.00 0.00 0.00 72 1009.8
20260507154516 20 225 6.4 20.9 0.00 0.00 0.00 71 1009.7
20260507153516 20 203 6.4 16.1 0.00 0.00 0.00 71 1009.7
20260507152556 21 248 6.4 16.1 0.00 0.00 0.00 71 1009.8
20260507151516 21 248 6.4 14.5 0.00 0.00 0.00 71 1009.7
20260507150516 21 270 6.4 14.5 0.00 0.00 0.00 68 1009.7
20260507145516 21 225 4.8 11.3 0.00 0.00 0.00 68 1009.6
20260507144516 21 180 6.4 17.7 0.00 0.00 0.00 65 1009.7
20260507143536 21 158 6.4 17.7 0.00 0.00 0.00 65 1009.8
20260507142536 21 158 4.8 12.9 0.00 0.00 0.00 62 1009.8
20260507141616 20 0 3.2 8.0 0.00 0.00 0.00 62 1009.9
20260507140516 20 135 4.8 11.3 0.00 0.00 0.00 62 1010.1
20260507135516 20 180 3.2 9.7 0.00 0.00 0.00 69 1010.2
20260507134516 20 248 4.8 12.9 0.00 0.00 0.00 69 1010.3
20260507133516 20 248 4.8 11.3 0.00 0.00 0.00 70 1010.3
20260507132516 20 225 4.8 9.7 0.00 0.00 0.00 73 1010.3
20260507131516 19 225 4.8 9.7 0.00 0.00 0.00 74 1010.3
20260507130516 19 180 6.4 14.5 0.00 0.00 0.00 74 1010.3
20260507125516 19 248 4.8 12.9 0.00 0.00 0.00 75 1010.4
20260507124536 20 225 9.7 17.7 0.00 0.00 0.00 72 1010.5
20260507123516 20 158 6.4 16.1 0.00 0.00 0.00 74 1010.6
20260507122536 19 180 9.7 20.9 0.00 0.00 0.00 74 1010.7
20260507121516 20 248 8.0 22.5 0.00 0.00 0.00 73 1010.7
20260507120516 19 248 8.0 14.5 0.00 0.00 0.00 74 1010.8
20260507115556 19 180 9.7 24.1 0.00 0.00 0.00 73 1010.9
20260507114516 19 225 11.3 20.9 0.00 0.00 0.00 74 1011.0
20260507113536 20 203 8.0 16.1 0.00 0.00 0.00 72 1011.0
20260507112516 20 225 6.4 11.3 0.00 0.00 0.00 71 1011.1
20260507111556 19 248 4.8 12.9 0.00 0.00 0.00 71 1011.0
20260507110516 20 225 8.0 16.1 0.00 0.00 0.00 71 1011.0
20260507105516 20 203 6.4 14.5 0.00 0.00 0.00 70 1010.8
20260507104516 20 180 8.0 19.3 0.00 0.00 0.00 68 1010.9
20260507103515 20 203 8.0 24.1 0.00 0.00 0.00 66 1010.8
20260507102515 21 203 8.0 17.7 0.00 0.00 0.00 62 1010.7
20260507101516 21 135 11.3 22.5 0.00 0.00 0.00 59 1010.8